Theta_e
338 337 338 338 338 336 336 336 339 340 340 341 341 341 341 341 340 337 336 335 336 336 334 333 332 332 331 331 331 332 334 335 336 336 336 337 337 338 338 336 335 335 335 335 336 337 336 337 337 337 336 337 337 336 336 336 336 336 336 335 335 335 335 335 335 334 334 334 334 334 333 333 333 332 332 332 331 329 328 327 327 325 323 322 323
339 338 338 339 340 340 341 341 341 341 341 341 341 342 341 339 337 336 335 335 336 336 334 332 331 331 331 331 331 333 334 335 336 337 337 338 339 338 337 335 334 334 334 334 335 335 335 335 336 336 335 336 335 335 336 335 335 335 335 335 334 334 334 334 334 334 334 334 334 334 334 333 333 333 332 332 331 331 329 328 328 327 326 323 322
339 339 339 340 341 342 343 341 341 342 341 341 342 341 339 338 337 338 338 336 335 335 332 331 330 330 331 331 330 331 333 333 336 338 338 338 338 338 337 335 333 332 332 331 332 332 332 333 333 333 334 334 334 335 335 335 334 334 334 334 333 333 333 334 333 333 333 333 334 334 334 334 334 333 333 332 332 332 331 329 328 327 327 326 324
340 339 338 340 342 342 342 342 342 342 341 342 342 340 339 340 340 340 338 336 335 334 331 330 330 330 329 329 330 330 331 334 336 337 336 336 336 336 336 335 333 332 331 330 330 329 329 330 330 330 331 332 332 332 332 333 332 332 332 332 332 332 332 332 332 332 333 333 333 333 334 334 334 334 334 333 333 332 332 331 329 328 327 327 325
341 340 339 341 342 343 342 342 342 342 343 343 341 340 340 341 340 339 336 334 333 332 331 329 329 330 329 328 330 331 332 334 335 335 335 333 333 333 333 334 333 332 332 330 329 328 326 326 326 326 326 328 330 329 329 330 330 330 330 329 329 330 330 330 331 330 331 332 332 333 333 334 334 334 334 334 333 332 332 332 331 329 328 327 326
341 341 341 341 342 343 342 342 342 343 343 342 341 341 341 340 338 337 334 333 332 331 331 330 329 329 329 329 331 332 333 333 334 334 332 331 330 328 329 329 330 330 330 330 328 326 325 323 320 320 320 321 323 324 325 326 327 327 327 327 327 327 327 327 328 328 328 329 330 331 331 331 332 333 333 333 333 332 332 332 332 330 328 328 327
340 342 343 342 341 342 342 342 342 343 342 342 342 341 340 339 337 336 335 332 331 331 330 330 330 330 330 331 332 332 333 333 332 331 330 329 328 325 324 324 325 326 328 329 327 325 323 318 315 315 315 315 315 316 317 319 320 321 322 323 323 324 325 325 326 326 326 327 327 328 328 328 329 330 331 332 333 333 333 332 333 331 329 329 328
341 343 344 342 341 342 341 342 343 342 342 343 342 340 340 339 337 337 336 334 332 330 329 330 330 332 333 332 332 332 332 331 330 329 329 328 327 324 322 321 322 323 324 324 324 324 320 315 313 313 313 311 309 307 308 310 311 313 316 316 318 320 321 323 324 324 324 324 324 325 326 326 327 327 328 329 330 331 332 332 333 332 331 331 329
340 343 345 342 340 341 341 342 342 341 342 343 341 339 339 337 336 336 334 334 331 329 329 328 329 333 334 332 332 332 331 331 329 328 327 326 325 322 320 319 319 320 320 319 318 319 317 314 313 313 312 310 307 305 306 307 305 307 313 313 312 314 315 318 320 321 322 321 322 322 322 324 325 325 326 327 327 328 329 330 332 333 333 332 330
342 343 345 342 340 341 341 343 342 340 342 342 339 339 338 337 336 335 335 333 330 330 328 327 330 333 333 332 332 331 330 329 328 326 324 323 321 318 317 316 317 318 318 316 313 313 314 313 312 311 311 310 309 309 310 311 307 306 312 313 310 310 311 313 315 316 317 317 318 319 320 321 322 322 322 323 324 326 327 328 330 332 333 332 330
343 344 344 341 341 342 342 343 341 341 342 340 338 337 336 336 335 335 336 333 328 328 327 328 332 332 333 332 331 331 329 328 326 323 320 318 317 315 314 314 315 317 316 314 311 311 313 313 312 312 312 311 311 311 311 312 310 307 311 313 311 310 311 312 312 312 313 313 313 314 315 317 318 318 317 319 321 322 324 326 327 328 330 330 329
343 343 343 341 341 342 342 342 340 340 340 338 337 336 335 335 334 333 335 334 327 326 328 331 334 332 331 331 330 329 328 327 323 318 315 314 315 314 313 313 314 315 314 313 312 311 312 312 312 311 312 311 312 312 311 313 311 308 311 313 311 311 312 312 312 312 312 312 311 311 311 311 312 312 312 314 316 318 321 323 325 326 327 328 328
341 340 341 341 341 341 342 341 339 338 337 337 335 335 333 333 335 332 332 331 326 325 328 332 334 332 332 332 331 329 327 324 318 313 312 314 315 315 314 314 314 313 312 312 312 312 311 311 311 311 311 311 311 311 312 312 310 308 312 312 310 310 311 311 311 311 312 312 311 311 311 309 309 309 309 310 312 314 316 318 321 324 326 326 327
338 338 340 341 339 339 340 339 338 337 336 335 333 333 333 332 335 333 330 328 324 324 326 329 331 329 332 333 331 330 327 323 318 313 312 313 314 314 314 314 313 312 311 311 311 311 311 311 312 312 311 311 311 311 312 312 310 309 311 311 309 307 309 311 310 311 311 311 311 311 311 311 311 311 310 310 310 311 312 314 317 321 324 325 325
337 338 339 339 337 337 338 337 336 335 334 334 332 332 332 332 332 333 333 328 323 322 323 326 329 328 330 332 331 331 328 325 321 315 312 312 313 313 313 313 312 312 311 311 311 311 312 311 312 312 311 311 311 311 311 311 311 311 311 311 308 304 307 310 309 310 311 310 311 311 310 311 312 311 311 310 310 309 311 313 315 316 319 322 323
337 337 337 338 337 336 336 336 334 334 333 332 331 330 329 329 329 331 334 329 322 320 321 323 326 327 330 329 329 331 328 326 323 318 314 313 313 313 313 313 313 313 312 311 311 311 312 311 311 311 311 311 311 311 311 311 311 311 310 310 307 304 306 308 308 309 309 309 310 310 310 310 311 311 310 310 310 311 312 314 314 313 313 317 320
336 336 336 336 336 335 334 334 333 332 330 330 329 327 326 326 326 327 331 329 323 319 318 320 319 320 324 326 325 325 323 324 323 318 315 314 314 314 313 313 313 312 310 310 310 310 310 310 310 310 310 310 310 310 311 310 311 310 310 309 305 303 306 307 307 308 307 308 308 309 309 310 310 310 309 310 311 312 312 312 312 311 311 312 315
334 334 334 334 334 334 333 333 331 330 329 328 326 325 325 324 324 325 327 327 325 321 318 318 316 315 317 319 321 321 321 323 323 320 316 314 314 312 311 312 311 310 309 309 310 309 309 309 310 309 309 309 309 310 309 310 310 310 310 308 304 304 306 307 307 306 306 306 307 308 308 309 309 309 309 310 310 310 310 310 310 311 311 311 311
332 332 332 332 332 332 331 330 329 328 326 326 325 324 323 322 322 323 324 324 325 325 321 318 316 315 315 315 315 318 321 321 322 322 319 315 312 311 309 309 309 309 309 310 309 309 308 308 308 308 308 308 308 309 309 309 310 310 309 306 303 304 305 306 306 305 305 305 306 307 307 308 308 308 309 309 309 309 308 309 309 309 310 311 311
330 330 330 331 331 330 329 328 327 325 324 323 323 322 321 320 319 320 321 321 321 322 321 318 316 316 316 315 314 315 317 318 318 320 319 315 313 311 310 309 309 309 310 310 309 309 308 307 308 308 307 307 307 308 308 309 309 309 308 305 303 304 305 306 306 304 303 304 305 306 306 306 307 307 308 308 307 307 307 307 308 308 309 310 311
329 328 328 328 329 327 327 326 324 322 321 321 320 319 319 318 318 318 319 318 318 319 319 319 318 318 317 316 316 315 315 316 316 317 317 315 314 313 313 313 313 310 309 310 309 308 307 307 307 307 306 306 307 307 308 308 309 309 307 304 303 304 305 305 305 304 303 303 304 305 305 305 306 306 306 306 306 306 306 306 307 307 308 308 309
327 327 326 326 326 325 324 323 321 320 319 318 317 316 316 316 317 316 316 316 317 317 317 317 317 317 317 317 317 316 316 316 315 316 316 316 313 313 313 313 313 311 310 309 308 306 306 306 306 305 305 306 306 306 307 308 308 308 305 303 304 305 305 306 305 304 303 302 303 304 304 305 305 305 305 304 305 305 305 305 306 306 307 307 307
325 324 324 325 324 323 322 321 320 319 318 317 315 314 313 314 315 315 315 315 315 315 315 315 315 315 315 315 315 315 315 315 315 315 315 316 315 312 311 312 311 310 309 308 306 305 305 305 304 304 304 305 305 306 307 307 308 307 304 303 305 306 306 306 305 304 303 302 302 302 303 304 304 304 303 303 303 303 304 304 304 305 305 305 306
323 323 324 323 322 321 321 320 319 318 317 316 314 314 313 314 315 315 315 315 315 315 314 314 314 314 313 313 313 313 313 313 313 313 313 314 315 313 311 311 311 309 307 306 305 304 305 304 303 303 303 303 305 306 306 307 307 306 302 303 306 306 306 305 304 303 303 302 302 302 302 303 302 302 302 302 302 302 303 303 303 303 303 304 305
322 323 322 321 320 320 319 318 317 316 315 314 313 313 313 313 314 314 314 314 315 315 314 314 313 313 313 312 312 312 311 312 312 311 312 312 313 314 312 311 311 309 307 305 304 304 304 304 303 303 303 303 304 305 305 306 307 304 302 304 306 306 306 305 304 303 303 303 303 302 302 301 301 301 302 301 301 302 302 302 302 302 303 303 304
322 321 320 320 320 319 318 317 316 315 314 313 313 313 313 312 312 312 313 313 314 314 313 313 313 312 312 311 311 310 310 311 311 310 310 310 311 311 313 312 310 310 307 305 304 304 304 304 303 302 303 303 304 305 305 305 306 303 302 304 306 306 306 305 304 304 303 303 303 302 301 301 301 300 301 301 301 301 301 301 302 302 302 302 302
321 320 319 320 319 318 317 316 315 313 313 313 313 313 313 312 311 312 312 312 313 313 312 312 311 311 311 310 310 310 309 309 309 309 309 309 309 309 311 312 311 310 309 305 304 304 303 303 303 302 303 303 303 305 304 305 305 302 302 305 306 307 306 304 304 304 303 303 302 302 301 301 301 300 300 300 301 301 301 301 301 301 301 301 301
321 320 319 319 318 317 316 315 314 313 312 312 312 312 312 311 311 311 311 311 312 312 311 311 310 310 310 309 309 309 309 308 308 309 309 308 308 307 308 311 311 310 310 307 305 304 304 304 304 303 303 303 304 304 304 304 304 302 303 305 306 306 305 304 305 304 303 303 303 302 302 301 301 300 300 301 301 301 301 301 300 300 300 300 300
319 319 318 318 317 316 315 315 314 312 312 312 312 311 311 311 311 311 311 311 311 311 311 310 310 309 309 309 309 308 308 308 308 309 309 308 308 308 307 308 309 310 310 308 306 305 304 304 304 304 303 303 304 304 304 304 303 302 303 305 306 306 305 304 305 304 304 303 303 302 302 301 300 300 300 300 300 300 300 300 300 300 299 299 299
318 317 317 317 316 315 314 314 312 312 312 312 311 311 311 311 311 311 311 310 311 311 310 310 309 309 309 308 308 308 307 307 307 308 308 307 307 307 306 306 308 309 310 308 306 305 305 305 305 304 303 303 304 304 304 303 302 302 303 305 305 305 305 305 305 304 304 303 302 302 301 301 301 300 300 300 300 300 299 299 299 299 299 299 299
317 317 316 316 315 314 314 313 312 312 312 311 311 311 311 311 311 310 310 310 310 310 309 309 309 309 309 308 308 307 307 307 307 307 307 307 307 306 306 306 306 307 308 308 307 306 305 306 305 304 304 303 304 304 303 302 302 302 304 304 304 304 305 306 305 304 304 303 303 302 301 301 301 300 300 299 299 299 299 298 298 298 299 299 299
317 316 316 315 315 314 313 312 311 311 311 311 311 310 310 310 310 310 310 309 309 309 308 307 307 308 308 308 307 308 307 306 306 307 306 306 306 306 306 306 306 306 307 308 308 307 306 306 305 305 304 303 304 303 302 302 302 303 304 304 304 305 305 305 305 304 304 303 302 302 301 301 301 300 299 299 298 298 298 298 298 298 298 298 298
317 316 316 315 314 314 313 311 310 310 310 310 310 310 310 310 309 309 309 308 308 308 307 307 307 306 306 306 306 307 307 307 306 306 306 305 305 305 305 306 305 305 307 307 307 307 306 306 306 305 304 303 303 303 302 302 302 303 303 303 304 305 305 305 304 304 303 302 302 302 301 301 301 300 299 299 298 298 298 298 298 298 298 298 298
317 316 315 315 314 313 312 310 310 310 310 310 310 310 310 309 309 308 308 308 308 308 307 307 306 306 306 306 306 306 307 306 306 306 306 305 305 305 305 305 305 306 306 306 306 307 306 306 305 304 304 303 303 302 301 301 302 302 303 303 304 304 304 304 304 303 303 302 302 302 301 301 301 300 300 299 299 298 298 298 299 299 299 298 297
316 315 315 314 313 313 311 310 310 309 310 310 310 310 309 309 308 308 307 307 307 307 307 306 306 306 306 306 306 306 306 306 306 306 306 305 305 305 305 305 305 306 306 306 306 306 306 306 305 304 304 303 302 302 301 301 301 302 302 303 304 304 304 303 303 303 302 302 302 301 301 302 301 300 299 299 299 298 298 298 299 299 298 297 296
316 315 314 314 313 312 310 309 309 309 309 309 309 308 308 308 308 307 307 307 307 307 306 306 306 306 306 306 306 306 306 306 305 305 306 305 304 305 305 305 305 305 306 306 305 305 305 305 304 304 303 303 302 302 301 300 301 302 302 303 304 304 303 303 303 302 302 302 301 301 302 301 301 300 300 299 299 298 298 298 298 298 296 296 295
315 315 314 313 313 311 310 309 309 309 309 308 308 308 308 307 307 307 307 307 307 307 306 306 306 305 305 305 305 306 306 306 305 306 306 306 304 305 305 305 304 305 305 305 304 304 305 304 304 303 303 302 302 302 301 300 301 302 302 303 304 304 303 303 303 302 302 301 301 301 302 301 301 300 300 299 299 298 298 298 297 296 295 295 295
315 314 314 313 312 310 309 309 309 308 308 307 307 307 307 307 307 307 307 307 306 306 306 305 305 305 305 305 305 305 305 305 306 306 307 306 304 304 304 304 304 304 304 304 304 304 304 304 303 303 302 302 302 301 300 300 301 302 302 303 304 303 303 303 303 302 301 301 301 301 302 301 301 300 300 299 299 299 298 297 296 295 295 295 295
315 314 313 313 311 309 308 309 308 308 308 307 307 307 307 307 307 307 306 306 305 305 305 305 305 305 304 303 304 304 304 304 304 305 306 307 305 303 303 303 303 303 304 303 303 303 304 303 302 302 301 302 302 301 300 300 300 301 302 303 304 303 303 303 302 302 301 301 301 301 301 301 301 301 300 300 299 299 297 296 295 295 295 295 294
314 313 312 312 310 309 308 308 308 308 308 307 307 307 307 307 307 307 306 306 305 305 305 305 305 304 303 302 301 300 299 299 299 300 303 305 305 302 301 301 302 302 302 303 302 302 303 303 302 302 301 301 301 300 300 300 300 301 302 303 304 303 303 303 303 302 301 301 301 301 301 301 301 301 301 300 299 299 297 296 296 295 295 295 295
314 313 312 310 309 308 308 308 308 308 308 307 307 307 307 307 306 306 306 305 305 304 304 304 303 302 301 300 297 294 293 293 293 294 296 298 299 299 298 298 300 301 301 301 301 301 303 302 302 301 301 301 301 300 300 299 299 300 302 303 303 303 303 304 303 302 302 301 301 300 301 301 300 301 301 300 299 298 297 296 296 295 295 295 295
313 313 311 310 309 308 308 308 308 308 307 307 306 305 306 306 306 305 305 305 304 304 304 303 302 300 299 296 293 292 292 292 292 292 292 292 293 293 293 293 295 297 299 300 299 300 302 302 301 300 300 300 300 299 299 299 299 300 302 302 303 303 303 304 303 302 302 301 301 300 301 300 300 300 300 300 299 298 297 296 296 295 295 295 295
313 312 311 309 308 308 308 308 308 308 307 306 305 304 304 305 305 305 305 305 305 304 304 303 302 300 299 298 296 297 298 298 296 295 293 292 292 293 293 292 292 293 294 297 298 299 301 302 301 300 300 300 299 299 298 299 299 300 301 302 302 302 303 303 303 302 302 301 300 300 301 300 300 300 300 299 299 297 296 296 295 295 295 295 295
313 312 311 309 308 308 309 308 308 308 307 305 303 304 304 304 305 306 306 305 305 304 304 303 303 302 301 301 300 300 301 301 301 299 297 296 296 297 297 296 295 294 292 293 295 297 300 302 300 299 299 299 298 298 298 299 299 299 300 302 302 301 302 303 302 301 301 301 299 300 300 300 300 300 300 299 298 297 296 296 295 295 296 295 295
313 312 310 309 308 308 308 308 308 308 305 303 303 303 303 304 305 306 305 305 305 305 304 303 302 302 301 301 300 299 299 299 301 302 301 300 300 300 300 299 299 298 295 292 293 294 297 300 300 298 299 298 298 298 298 298 298 299 300 301 301 301 302 302 302 301 301 300 299 299 300 300 299 300 300 299 298 298 297 296 295 296 296 296 296
312 312 310 309 308 309 309 308 309 307 304 302 302 302 303 303 304 305 305 305 305 304 304 304 303 302 302 301 301 301 299 297 297 299 300 302 302 303 302 302 302 302 299 296 295 295 296 298 299 297 297 297 297 298 298 298 297 298 300 301 301 300 301 302 301 301 300 300 299 299 300 300 299 299 300 299 299 299 298 296 295 296 296 296 296
312 311 310 309 308 308 308 308 308 305 302 300 300 301 301 302 303 305 305 305 304 304 303 303 303 303 303 302 301 301 299 295 293 294 297 301 303 303 303 303 303 303 301 298 296 296 296 297 298 297 297 297 297 297 297 297 296 297 299 300 300 300 301 302 302 301 300 299 298 299 300 300 299 299 299 299 299 299 298 296 295 295 296 296 296
312 311 310 309 308 308 308 307 307 303 299 298 298 298 299 301 302 304 304 303 303 303 303 302 302 302 302 302 301 302 299 294 291 293 296 299 302 303 303 303 302 301 301 299 297 296 296 298 298 298 298 297 297 297 297 296 296 296 298 300 300 300 301 301 301 301 300 300 299 299 300 300 300 299 298 298 298 299 299 297 295 295 295 296 296
311 311 310 309 308 308 307 307 306 301 298 297 297 296 298 301 302 303 303 303 303 303 302 302 302 302 302 302 301 302 300 294 291 292 296 299 302 302 303 303 302 300 299 299 299 298 297 299 299 299 298 297 297 297 297 296 296 296 298 299 299 299 300 301 301 301 301 300 299 299 300 300 300 299 299 299 299 299 300 299 297 295 295 295 295
311 311 309 308 307 307 307 307 305 301 297 297 297 296 297 299 302 303 303 302 302 302 302 302 302 301 300 301 302 303 300 294 291 292 295 299 302 302 302 302 301 300 298 297 299 299 299 300 300 299 298 297 297 297 297 296 296 297 299 299 299 299 300 300 300 301 301 300 300 299 300 300 300 299 299 299 299 299 300 300 299 297 296 295 295
311 310 308 308 307 308 308 307 305 301 298 297 297 296 296 298 301 303 302 302 302 302 301 302 302 300 296 297 300 301 297 292 291 293 294 297 301 303 301 301 301 299 297 296 298 299 300 300 299 299 299 298 298 298 297 297 297 298 298 298 298 299 300 300 300 301 300 300 299 299 299 299 299 299 299 299 299 299 299 300 300 299 298 297 296
Wind_Speed
8 7 7 6 6 6 6 6 5 4 3 4 4 3 2 2 3 3 2 2 2 3 4 5 6 5 5 6 6 7 6 6 6 6 6 5 6 8 10 10 8 8 8 7 8 9 9 9 9 10 10 10 10 11 12 13 13 14 15 15 16 15 16 17 17 17 17 17 18 18 19 20 20 20 19 18 18 17 16 15 15 15 15 16 17
7 7 7 6 6 5 4 4 4 2 4 4 3 2 2 2 2 3 2 2 3 3 4 5 6 5 5 6 6 5 5 6 6 7 7 7 7 9 11 12 12 11 10 9 9 8 8 7 7 8 10 10 10 10 11 12 12 12 13 13 14 14 15 16 16 16 16 16 16 17 18 18 20 21 20 20 20 20 19 18 16 15 16 17 17
6 6 6 6 6 5 4 4 3 3 4 3 1 2 2 1 2 3 3 3 4 4 4 5 5 6 6 6 6 5 6 7 7 7 8 9 9 9 10 13 14 14 14 15 13 10 8 6 6 6 8 9 10 10 10 11 12 12 13 13 14 14 14 15 16 16 16 16 17 17 17 18 19 20 21 21 21 22 22 20 18 17 17 17 17
6 6 5 6 5 5 5 4 3 3 3 1 1 2 1 1 2 2 3 3 3 4 4 4 5 6 7 7 6 7 7 7 8 9 9 9 9 9 9 11 14 15 16 17 17 15 13 10 8 7 6 6 8 9 9 11 12 14 14 15 16 13 13 15 16 16 16 16 16 16 17 18 19 20 20 22 23 23 23 23 20 20 19 18 17
6 5 5 5 4 4 5 4 3 2 1 1 1 1 1 1 2 1 2 3 2 4 4 4 5 5 6 7 7 8 8 8 9 10 10 11 11 10 9 9 12 14 16 17 17 17 16 13 11 11 9 7 7 8 7 9 12 13 13 14 16 14 12 15 16 16 16 16 16 15 15 16 17 19 20 22 23 23 24 25 23 22 21 20 19
6 5 5 4 4 5 4 4 3 2 2 1 1 0 1 2 3 2 3 3 3 4 4 4 4 5 6 6 7 8 8 9 10 10 11 12 12 12 11 10 10 11 13 15 16 18 18 15 14 14 14 13 11 11 10 10 11 12 12 12 14 15 12 13 16 16 15 16 16 17 16 14 14 15 17 19 21 22 23 24 25 25 24 22 20
6 6 5 5 5 5 4 4 3 3 2 1 1 1 2 3 4 4 4 4 4 4 4 4 4 5 6 6 7 7 7 9 9 9 10 11 11 11 11 11 11 10 10 11 14 17 19 17 17 18 18 18 16 15 14 13 12 12 13 12 12 13 13 14 15 16 15 15 16 18 19 15 13 15 16 16 17 19 21 24 26 26 26 25 23
7 6 5 6 6 5 5 4 4 3 2 0 0 2 3 3 4 5 6 5 5 5 4 4 3 4 5 5 6 7 7 8 9 9 10 9 9 10 10 11 11 11 11 10 11 15 19 18 18 19 19 20 18 17 16 15 14 14 15 15 13 13 13 13 14 16 16 16 16 18 19 17 14 15 16 16 16 17 18 19 23 26 27 27 24
8 7 6 6 6 5 5 4 4 3 2 1 1 3 3 3 3 5 6 5 5 5 4 4 3 4 5 5 6 7 7 8 8 8 9 9 9 9 10 10 11 11 11 11 12 13 15 16 15 16 18 21 21 19 19 17 17 17 16 17 16 15 14 13 14 15 16 16 17 19 19 19 18 19 18 17 17 18 18 18 18 23 27 28 26
8 7 6 6 6 5 4 4 4 4 3 1 3 3 3 4 4 4 4 5 5 5 4 4 3 4 6 6 7 8 8 7 8 8 9 9 9 10 10 10 10 11 11 12 13 13 13 13 13 13 16 20 20 20 18 16 20 20 17 18 19 18 18 16 16 16 16 17 18 19 20 21 21 22 22 20 18 18 20 21 20 19 22 26 28
8 8 7 6 7 6 5 4 4 4 3 2 3 3 4 4 4 4 3 3 4 4 4 2 2 5 7 10 10 9 8 8 8 9 9 9 9 10 10 10 10 10 11 12 13 14 13 13 13 12 13 16 16 17 17 14 20 22 17 18 21 20 21 20 20 20 19 19 19 20 21 21 22 23 23 22 22 20 19 21 22 21 21 23 26
9 9 8 6 7 6 5 5 4 4 4 3 3 3 3 3 2 3 2 2 4 5 3 1 3 7 8 10 9 8 8 9 9 9 10 9 9 10 11 10 10 10 11 11 12 13 13 13 14 14 13 15 14 15 16 13 19 22 17 18 21 22 22 22 22 22 21 22 22 22 22 22 22 23 23 24 24 23 21 20 22 23 23 22 21
7 7 7 6 6 6 6 5 5 5 5 4 4 3 2 3 1 1 2 2 4 6 4 3 3 8 8 8 8 7 8 9 10 11 10 10 10 10 10 11 10 10 10 10 11 12 13 13 13 14 14 14 14 15 14 13 18 22 18 17 21 23 23 22 22 22 22 23 23 23 24 23 23 23 24 25 26 25 23 21 20 21 22 23 22
2 2 6 5 6 7 6 6 6 5 4 4 3 2 2 2 1 1 2 4 5 7 6 4 3 5 7 7 7 7 8 9 11 12 11 10 10 10 10 11 11 11 11 11 11 11 12 13 13 14 15 14 14 15 14 13 18 21 18 17 23 27 24 22 22 23 23 23 24 24 24 23 23 24 25 26 26 25 24 23 22 20 20 23 24
1 2 4 4 4 6 6 6 6 5 3 2 2 2 2 2 2 0 2 3 5 8 9 7 4 0 5 6 5 6 6 8 10 12 12 11 10 10 10 10 10 10 11 11 11 11 11 13 13 13 15 15 14 15 14 14 16 18 17 16 25 29 25 23 23 23 24 24 24 24 24 24 24 25 26 26 26 25 24 24 25 23 21 22 23
6 4 3 4 4 5 6 6 5 4 3 2 2 2 2 3 3 3 1 2 5 7 10 10 9 5 2 3 5 6 4 6 9 9 10 11 10 9 8 8 9 9 10 11 11 10 10 11 13 12 14 14 14 15 14 15 15 17 15 16 25 29 24 24 24 23 24 25 25 25 24 24 25 25 26 26 26 26 26 25 26 26 26 24 23
10 7 5 5 5 5 6 5 4 3 2 3 3 3 4 4 4 4 4 4 4 6 10 11 11 10 6 3 3 3 2 7 8 6 8 9 9 8 8 7 8 9 10 11 11 11 10 11 12 13 13 14 15 14 15 15 15 17 15 17 28 29 23 23 24 24 25 26 27 27 26 25 25 26 26 26 26 26 26 26 27 28 27 27 26
11 8 6 6 5 5 5 4 3 3 3 4 4 4 5 6 5 5 5 5 4 6 8 9 11 13 13 10 6 4 4 4 4 4 7 8 7 7 8 8 9 9 9 10 10 11 12 12 13 14 14 14 15 15 15 15 16 17 15 20 30 29 24 24 23 24 26 27 29 28 27 26 26 26 27 26 26 26 26 27 28 28 28 27 28
10 7 6 7 6 4 4 3 3 4 4 6 6 6 6 7 6 6 6 6 5 6 6 7 9 11 12 12 11 10 8 4 1 1 4 5 6 6 8 9 9 9 8 9 9 10 11 13 13 13 13 14 15 15 15 14 16 16 16 24 32 29 26 25 22 24 26 28 30 29 28 27 27 27 27 27 27 27 27 27 27 28 28 27 27
10 8 7 7 5 4 3 3 4 5 6 7 7 7 7 7 8 8 8 8 8 7 6 7 7 8 9 10 12 11 10 8 7 5 1 3 5 5 5 5 6 10 9 8 8 9 9 11 12 13 13 13 14 14 14 15 16 15 18 29 33 28 26 25 24 26 29 29 30 29 28 28 28 29 28 29 29 28 28 27 27 27 28 28 27
9 7 7 7 5 3 4 5 5 6 7 8 8 9 9 9 9 9 10 10 10 8 8 8 7 7 7 8 8 8 9 9 8 8 5 3 2 2 1 1 2 7 9 8 7 7 8 10 11 11 13 13 13 14 14 14 15 14 20 30 31 26 25 25 24 27 31 32 30 28 29 29 29 29 29 30 30 30 29 28 28 27 27 28 27
8 7 6 7 6 5 5 6 6 8 9 9 9 10 11 11 11 11 12 12 11 10 10 9 9 8 8 8 7 7 7 7 8 7 6 4 3 1 1 1 1 3 6 6 6 7 8 9 10 12 13 13 13 14 14 15 15 15 23 30 29 25 22 21 22 26 30 31 30 29 29 30 31 30 31 32 32 31 30 29 28 27 27 27 27
8 8 7 7 6 6 6 6 7 9 9 9 9 10 11 12 13 13 13 13 12 12 12 11 11 12 11 10 10 9 7 7 8 7 6 4 2 2 2 2 1 3 4 4 5 9 9 9 12 13 13 13 14 14 14 15 14 16 27 31 26 24 21 19 22 27 29 29 29 30 29 30 32 32 33 33 32 31 30 29 28 27 27 27 27
9 9 8 7 8 8 7 7 8 8 8 9 9 10 11 12 12 13 13 12 11 11 12 12 12 12 12 12 11 11 10 9 8 8 7 6 5 4 4 4 3 4 5 5 7 10 9 10 14 15 15 15 15 15 15 16 14 19 31 30 24 24 22 21 25 28 28 27 28 30 30 30 32 33 35 35 34 32 30 29 28 27 27 27 27
10 10 9 9 9 8 8 8 9 9 9 10 10 11 12 13 13 13 13 13 12 12 13 13 12 12 12 12 11 11 11 10 9 9 8 8 7 5 5 5 4 3 5 7 9 11 9 10 14 16 16 17 17 15 17 18 14 22 33 28 22 23 21 23 28 27 26 27 30 31 31 32 33 34 35 36 35 33 31 30 29 28 27 26 26
12 11 10 10 9 8 9 9 9 10 10 11 12 12 13 14 14 14 14 13 13 13 14 14 13 13 12 12 12 12 11 10 10 11 10 10 9 8 6 3 3 4 6 8 10 12 12 11 14 18 17 18 18 16 19 18 16 26 33 24 20 21 21 26 28 25 25 27 29 31 32 35 38 36 35 36 36 34 33 30 29 28 27 26 26
13 12 12 11 10 10 10 10 9 10 11 12 12 13 14 15 14 14 13 13 13 14 14 14 14 14 13 12 12 11 11 11 11 11 11 10 9 10 9 5 2 2 5 8 10 12 14 12 13 18 19 19 19 18 20 19 19 29 31 23 21 20 23 28 27 24 25 27 28 32 35 38 39 38 37 37 37 35 33 31 30 29 28 27 27
14 13 13 12 11 11 11 10 10 11 11 12 12 13 14 15 15 14 14 13 14 14 14 14 14 13 13 12 12 12 11 11 11 10 10 10 9 10 10 8 6 3 3 6 8 10 14 14 13 17 20 21 20 20 22 20 22 30 28 23 21 20 25 30 26 24 26 29 33 36 38 38 38 39 38 37 37 34 32 32 31 30 29 28 28
16 14 14 12 12 12 11 10 10 11 12 12 13 14 15 15 14 14 13 13 13 13 13 13 13 12 12 11 11 12 12 11 11 10 9 8 8 9 10 10 9 6 3 4 6 9 14 15 14 17 20 23 22 22 23 21 24 29 27 23 21 21 27 29 26 26 29 32 36 37 38 39 39 39 38 36 36 34 32 31 30 30 29 29 28
16 15 14 13 12 12 11 11 11 12 12 13 14 14 14 14 14 13 13 12 12 13 12 12 12 11 11 11 11 12 11 10 10 9 8 8 8 8 9 10 10 8 6 5 5 9 13 14 15 17 20 23 23 22 23 22 24 28 26 22 21 23 26 25 24 27 30 33 36 38 40 40 38 38 37 35 34 33 32 30 29 29 28 28 28
16 16 15 14 13 12 11 11 12 12 13 14 14 14 14 14 14 13 12 12 12 12 11 11 11 10 10 11 11 11 10 9 8 8 8 8 7 7 8 10 11 10 9 7 5 7 12 13 15 16 18 22 21 21 23 23 24 27 26 23 23 24 24 22 23 26 29 33 38 41 41 39 38 38 36 35 33 32 32 31 30 29 28 27 26
17 16 15 14 13 12 12 12 12 13 13 14 14 14 14 13 13 12 12 12 12 12 11 11 10 10 10 11 10 9 8 7 7 7 7 7 7 8 8 9 10 11 11 9 6 7 10 12 13 15 17 20 20 20 23 24 24 26 25 24 24 23 22 21 23 25 29 35 39 40 40 40 38 37 37 37 34 33 33 32 31 29 27 26 28
16 16 14 14 13 12 12 12 13 13 14 14 14 14 14 13 13 13 12 12 12 11 11 11 10 10 11 12 11 9 8 7 6 6 6 7 7 8 9 9 10 11 11 10 8 9 10 12 13 14 16 18 19 20 23 25 26 25 24 24 24 22 21 23 24 24 28 35 38 39 41 40 38 37 38 37 34 34 34 33 32 30 27 28 32
16 15 15 14 13 13 13 13 13 14 14 14 14 13 14 14 13 13 12 12 12 11 11 10 10 10 11 11 10 8 7 7 7 6 6 7 7 8 9 10 10 10 10 10 10 10 12 13 14 14 15 17 18 20 23 25 26 26 24 24 24 23 22 23 24 24 28 34 37 38 40 39 38 39 39 37 35 34 33 33 32 28 26 30 35
16 15 15 14 14 13 13 14 14 15 15 14 14 14 14 14 13 13 13 12 12 11 11 11 11 11 10 10 8 7 6 6 6 6 6 7 8 8 9 9 9 9 9 10 10 11 13 13 14 15 16 17 18 19 22 24 25 25 24 23 23 23 23 23 23 24 28 33 34 36 37 36 37 38 38 37 35 31 31 33 31 27 29 34 37
17 16 15 14 14 13 14 14 15 15 15 15 15 15 14 14 14 14 13 12 12 11 11 11 11 10 9 9 7 6 6 6 6 7 7 7 8 9 9 8 9 9 9 10 10 11 12 13 13 14 15 16 17 19 21 23 24 23 23 23 22 21 22 23 23 23 27 31 32 33 33 33 36 37 36 36 33 31 32 33 31 30 34 37 37
17 16 15 15 14 13 14 15 15 15 15 15 15 15 15 14 14 14 13 12 12 11 11 11 11 10 9 8 7 6 5 6 6 6 7 8 9 9 9 9 9 9 10 9 10 11 11 12 13 14 15 16 17 18 21 24 23 22 23 23 22 20 21 22 22 23 26 30 31 31 30 32 34 36 35 33 32 32 34 33 32 35 38 38 37
18 17 15 14 14 14 15 15 16 16 16 16 15 15 15 15 14 13 13 13 12 12 12 11 11 9 8 8 6 6 6 6 5 5 5 7 8 9 9 9 10 10 10 9 10 11 10 11 13 14 15 16 17 19 21 24 23 22 22 22 22 21 21 21 22 23 26 30 32 30 30 32 34 35 35 32 30 33 34 34 36 38 38 37 38
18 17 16 15 14 14 15 16 16 16 16 16 15 15 15 15 14 14 13 13 13 12 12 11 10 9 8 7 6 6 6 5 5 4 4 5 7 8 8 9 10 10 10 10 10 11 10 10 12 14 15 16 17 19 21 23 22 21 21 22 22 22 23 22 22 23 26 29 31 29 30 33 34 34 34 31 29 33 36 38 40 40 38 39 39
17 17 16 15 15 15 16 16 16 16 16 15 15 15 15 14 14 14 13 13 13 12 12 11 10 9 8 7 7 7 8 8 8 7 7 6 6 7 8 9 10 10 10 10 11 11 10 10 12 14 15 16 17 19 21 23 22 22 22 22 21 23 24 23 22 23 26 30 32 29 28 30 32 33 34 31 31 35 37 40 44 44 42 42 42
17 16 16 16 15 16 17 17 16 16 15 15 15 15 15 15 15 14 13 13 13 13 13 11 10 9 8 8 9 10 11 11 12 12 11 10 9 8 8 9 10 10 10 10 11 11 10 11 12 13 15 16 17 19 21 23 23 23 23 22 20 22 24 23 21 22 25 30 32 29 26 28 31 32 33 32 34 38 40 43 47 47 46 46 45
17 16 16 16 16 17 18 17 17 16 14 15 16 16 15 15 14 13 13 13 12 12 12 11 10 10 9 10 11 12 12 12 12 12 12 11 11 11 11 11 10 10 10 10 10 11 10 11 12 13 14 15 17 19 20 22 23 23 23 22 21 22 23 22 21 22 25 29 31 28 25 27 29 30 32 33 35 39 42 45 49 49 48 47 47
17 17 16 16 17 17 18 17 17 15 13 16 19 19 17 16 14 13 13 12 11 12 11 11 10 10 9 9 8 7 6 6 8 10 10 10 11 10 10 11 11 11 9 8 9 10 10 10 11 13 13 14 16 17 18 20 22 23 22 21 21 23 23 21 20 22 25 29 31 27 24 26 28 28 29 30 34 40 44 46 48 50 49 48 47
17 17 17 17 17 17 17 18 17 14 14 20 22 20 19 18 15 13 12 12 11 11 10 10 10 9 9 8 6 5 4 3 2 3 5 6 8 8 8 8 10 11 11 8 8 9 9 10 11 12 12 13 14 15 17 19 22 23 22 20 21 23 23 21 20 22 24 27 30 27 22 24 27 26 25 26 30 37 44 47 50 51 50 49 48
17 17 17 17 17 18 18 18 16 14 17 23 24 22 21 20 17 13 11 11 11 11 10 10 9 9 9 8 7 6 5 4 3 2 1 3 4 5 6 5 5 7 10 10 9 9 8 8 9 11 11 12 13 14 16 18 20 21 21 21 21 22 22 20 20 22 22 25 30 27 21 24 27 26 25 25 26 31 40 47 50 51 50 50 49
16 17 17 17 18 18 18 18 16 15 20 26 26 24 22 20 16 12 10 11 10 10 10 9 8 8 8 7 7 6 4 3 4 5 3 0 3 4 4 3 4 4 7 9 9 8 7 7 7 9 9 9 11 12 14 17 19 20 20 21 22 23 22 20 19 20 19 22 29 27 20 23 28 27 26 27 26 29 36 44 48 50 51 50 50
17 17 17 17 18 17 18 18 15 16 22 26 25 24 23 20 14 10 9 11 10 10 9 8 7 7 7 6 7 6 4 4 5 5 5 3 1 3 3 2 3 3 2 6 8 8 6 5 5 7 7 8 10 11 12 15 18 19 19 19 20 21 22 19 17 19 18 19 27 27 21 23 28 27 26 27 26 27 33 41 47 50 51 50 50
17 16 16 17 17 17 18 17 16 18 24 25 24 24 23 19 14 9 9 10 9 9 9 8 7 7 6 6 6 5 5 5 5 5 5 5 3 3 2 2 3 2 2 7 10 10 9 7 7 9 9 10 12 11 10 13 18 20 19 17 18 19 20 18 17 19 18 17 24 27 23 22 27 28 27 28 27 25 26 35 44 48 51 52 50
17 17 17 17 17 18 18 17 17 22 26 25 24 25 24 20 14 9 8 9 9 9 9 8 8 7 6 7 7 5 5 5 5 5 6 6 3 2 2 2 3 3 4 9 10 11 12 10 9 11 10 10 12 11 9 11 17 20 18 17 19 19 18 17 16 19 20 17 22 27 25 21 25 28 28 29 29 24 20 26 37 44 48 52 52
17 17 16 17 17 18 18 17 18 24 28 26 25 26 27 23 17 11 9 9 9 9 9 8 7 6 8 10 9 6 6 7 6 6 6 5 3 2 2 3 4 3 5 9 10 10 12 12 11 11 10 12 14 12 11 12 14 16 16 17 18 19 18 17 17 19 19 17 22 28 25 22 24 26 28 29 27 25 22 23 30 38 43 48 51
17 16 16 17 17 17 17 16 19 25 28 27 25 26 27 24 20 14 10 9 10 10 9 9 8 6 9 12 11 8 8 8 7 6 6 5 2 1 3 3 3 4 7 10 10 10 12 12 11 10 10 11 12 12 13 12 12 14 16 16 17 17 17 18 18 17 15 14 22 28 24 22 25 25 26 24 19 21 28 26 25 31 37 42 46
Wind_Direction
174 174 176 180 179 185 183 183 198 196 207 244 252 250 261 263 272 284 302 329 348 350 340 330 321 325 341 345 353 354 350 351 357 357 13 54 43 27 24 16 12 4 5 18 28 29 20 15 12 9 4 355 348 344 340 336 335 331 327 328 326 321 318 316 315 314 314 310 301 295 290 285 284 284 284 285 288 289 289 292 288 287 293 285 275
175 174 172 176 178 183 184 190 202 199 219 238 252 252 262 274 293 320 337 344 350 357 350 335 331 352 1 357 2 356 359 7 8 12 32 65 58 43 39 30 26 22 19 19 28 36 32 27 25 27 25 19 11 3 4 3 1 356 347 347 346 341 335 330 327 323 318 314 307 301 297 291 288 285 282 281 285 287 286 288 283 282 292 293 282
178 179 171 172 173 182 193 199 202 207 233 242 237 241 257 317 353 357 354 351 352 354 351 350 353 3 3 4 12 6 17 22 22 29 38 55 58 57 51 35 29 29 24 17 13 14 16 17 16 26 32 33 30 21 22 20 16 17 12 8 4 357 353 348 342 337 327 316 310 308 303 297 293 290 285 280 281 284 284 285 283 282 288 292 289
185 185 176 176 174 186 199 203 209 209 232 252 234 257 272 29 24 16 357 351 356 352 348 5 8 10 8 6 17 17 24 34 35 39 40 46 52 60 59 37 27 25 21 17 13 8 6 7 5 5 1 10 23 20 23 21 17 18 18 17 12 5 1 360 354 349 345 333 321 315 309 304 300 296 291 284 280 279 280 281 281 282 285 287 289
189 190 186 183 174 187 198 193 202 198 192 235 240 275 17 32 18 17 356 350 6 359 352 17 18 21 18 7 21 27 27 39 44 44 44 44 43 44 46 35 25 17 10 10 10 5 2 4 8 9 0 349 351 350 354 2 6 7 7 9 7 4 4 4 1 357 357 355 345 333 325 320 315 305 295 289 287 282 279 279 277 277 282 283 284
190 193 189 177 174 187 193 177 175 169 166 219 234 183 34 20 7 355 356 352 11 12 1 17 18 23 26 13 28 38 38 43 45 46 45 44 40 36 34 31 26 16 5 3 4 1 357 358 4 9 6 0 356 348 342 340 343 346 348 352 354 355 355 355 358 356 357 0 359 353 345 343 342 333 313 297 293 290 285 281 276 273 275 278 278
191 188 178 178 178 179 186 166 164 173 163 212 247 77 41 27 15 4 3 353 5 14 5 15 16 23 31 26 39 45 49 51 44 43 40 38 36 31 28 25 23 19 9 5 4 360 355 355 360 3 2 359 359 358 356 353 348 344 342 344 341 340 338 334 339 343 344 349 355 357 353 346 345 351 345 327 309 298 292 287 283 278 273 273 274
191 182 174 186 175 167 182 163 160 168 142 167 294 62 47 27 20 15 9 356 6 13 5 13 17 38 47 45 56 50 46 49 42 39 34 30 30 27 26 23 20 18 14 12 9 0 359 3 4 360 356 353 356 359 359 357 358 358 353 353 347 338 334 324 323 329 331 333 336 343 345 340 334 338 343 341 331 317 307 301 293 286 277 272 271
187 179 178 192 173 163 174 159 159 155 132 142 79 66 47 30 26 25 11 354 5 13 7 13 19 61 69 58 63 57 48 47 41 39 36 32 29 26 25 22 21 20 19 15 12 5 3 10 8 357 352 351 356 3 4 359 359 5 2 358 355 350 346 335 326 326 324 324 326 329 329 326 323 325 328 331 331 324 322 323 310 291 280 272 267
181 176 181 188 168 165 162 150 152 134 125 123 88 69 45 34 25 22 10 356 6 12 8 14 37 80 86 72 61 59 57 52 46 43 37 33 28 26 24 21 23 24 24 19 15 13 7 10 10 360 352 353 359 4 7 4 357 2 8 3 360 357 355 350 343 337 330 325 323 323 322 317 316 318 320 323 324 322 319 321 319 306 296 285 269
181 174 178 176 161 162 145 129 132 121 115 98 83 63 46 34 18 7 357 11 15 7 3 17 91 93 79 74 70 64 58 50 49 43 34 31 28 27 24 23 27 26 26 22 17 17 13 11 10 6 356 356 2 2 6 5 351 357 7 3 2 2 1 359 354 350 345 338 328 323 320 315 316 317 319 321 319 318 317 314 315 314 317 311 282
191 178 169 160 150 146 130 118 116 105 88 74 63 47 36 9 5 2 348 38 22 8 6 351 125 110 87 81 81 75 67 63 57 43 33 33 31 29 28 27 29 27 26 23 21 19 16 15 11 9 3 0 3 359 6 5 347 355 7 2 3 4 1 359 356 355 353 348 342 337 329 321 320 321 322 321 316 315 315 312 313 314 317 320 304
207 182 153 142 137 129 116 107 102 90 75 69 53 36 18 342 319 15 14 49 23 14 4 305 189 140 117 109 106 95 83 78 66 48 38 37 36 36 35 33 31 28 26 24 24 21 18 18 12 10 6 2 4 359 4 2 348 356 6 358 357 358 357 355 353 352 351 349 347 344 339 334 330 329 326 322 317 316 315 312 313 316 314 313 312
264 148 130 135 139 125 106 94 92 88 80 72 50 27 10 345 285 186 78 69 37 22 7 326 236 169 141 139 130 112 95 88 75 55 46 43 42 42 39 37 35 33 30 27 26 23 20 15 10 7 4 1 1 358 358 357 349 355 1 350 345 349 354 353 350 350 349 347 346 344 342 341 339 336 331 326 321 320 320 318 313 310 314 314 309
135 107 122 120 121 115 101 90 86 89 94 91 61 32 23 13 343 309 117 95 55 31 21 18 8 187 171 170 151 137 125 111 89 64 56 52 49 47 42 39 37 35 30 28 23 19 15 10 6 3 1 0 358 357 355 353 349 350 356 347 338 345 354 353 350 348 347 346 345 343 342 341 341 339 335 331 328 328 327 325 318 309 307 313 312
135 134 127 93 84 95 93 83 79 91 107 102 82 61 51 47 36 17 35 97 71 42 33 36 31 18 232 205 162 161 163 128 107 85 72 61 54 48 44 40 35 34 31 29 24 18 14 10 8 2 1 0 356 356 353 351 350 349 354 345 338 345 352 351 351 350 347 347 345 344 342 340 339 338 337 334 333 333 330 327 322 315 307 304 308
129 123 124 101 82 78 77 76 81 95 109 102 90 77 66 57 53 41 35 63 91 67 45 44 44 40 27 19 158 168 116 129 127 106 85 68 59 49 45 43 37 38 36 33 28 23 18 11 9 4 2 0 357 356 352 352 349 349 353 341 338 348 352 349 350 351 350 349 346 344 341 339 338 336 336 335 334 332 329 327 324 320 315 307 301
127 112 113 100 84 74 72 77 94 100 105 105 95 80 69 58 56 57 51 53 92 93 63 54 53 51 52 54 57 44 56 141 166 121 103 84 67 56 49 48 45 41 37 34 27 23 20 12 7 5 2 0 359 355 352 352 348 349 349 336 340 349 351 348 348 348 350 350 347 344 341 339 338 336 336 335 333 331 327 324 323 321 319 317 309
123 104 102 91 76 72 78 92 108 112 109 103 91 80 73 64 63 65 65 61 77 97 80 68 60 50 53 58 57 53 47 39 359 102 130 106 81 75 65 57 51 41 27 23 20 15 15 11 5 3 1 359 357 353 351 351 347 349 344 337 343 349 346 345 346 345 348 350 348 347 345 342 339 337 336 334 332 330 328 323 321 320 319 320 320
121 103 97 93 84 78 107 124 118 113 103 97 88 83 80 74 73 72 72 70 72 86 85 78 75 59 54 57 56 56 51 42 24 4 17 113 111 108 90 76 60 43 22 6 7 6 7 7 1 359 358 356 354 351 349 347 345 346 341 340 345 349 348 347 345 344 346 348 349 348 347 344 341 339 336 334 333 330 327 324 320 318 317 316 318
129 113 92 94 99 101 130 134 119 109 100 96 89 86 86 81 79 78 78 78 73 78 84 80 79 72 66 64 62 60 55 47 32 21 24 53 103 113 94 164 109 48 21 357 355 3 6 3 358 359 357 353 350 348 346 344 342 340 339 341 343 344 347 348 344 344 346 346 346 346 347 346 343 341 337 334 332 330 327 325 322 318 316 315 313
139 126 101 99 111 125 138 130 113 107 101 97 93 90 91 87 83 82 83 83 78 77 82 81 76 71 68 67 67 66 63 51 38 37 34 34 65 66 340 248 154 65 17 351 351 9 14 7 3 3 359 354 352 350 348 344 341 337 338 341 341 341 342 342 341 343 345 345 344 344 346 346 345 342 340 336 332 330 327 324 323 319 315 314 312
138 122 110 110 125 137 136 124 109 105 103 99 97 96 95 91 87 85 84 83 82 81 80 80 78 73 68 68 66 61 60 55 40 34 32 27 29 31 6 334 29 68 34 3 7 15 16 14 13 10 4 1 359 355 351 347 344 337 339 343 345 348 348 343 343 344 345 343 343 344 344 343 344 343 340 339 335 331 329 326 323 321 317 314 313
130 116 120 129 137 139 132 120 109 105 104 102 103 103 100 95 90 88 87 84 84 83 81 78 77 75 71 68 68 64 59 54 43 35 32 20 358 12 28 4 10 65 57 39 26 20 17 19 18 12 9 7 2 359 353 350 347 339 342 347 350 352 351 348 347 346 345 343 343 345 343 341 341 342 341 339 336 332 329 327 325 322 320 316 313
127 125 136 142 143 143 131 120 112 107 106 105 106 105 102 99 95 92 91 87 84 83 82 78 76 77 75 69 67 65 59 51 45 40 35 28 16 8 11 10 8 41 56 42 30 25 20 22 20 13 12 9 2 1 355 351 348 342 345 349 350 349 347 347 349 347 344 344 345 346 343 342 342 342 341 339 335 333 329 327 326 324 321 318 315
133 138 145 147 147 141 128 120 115 111 109 108 107 105 103 101 98 95 93 90 87 85 83 80 78 75 75 73 69 65 59 51 48 45 39 34 28 6 344 353 25 35 48 37 30 29 20 20 22 14 12 8 2 359 354 353 347 344 347 349 348 347 343 347 351 349 347 347 348 348 345 345 345 343 341 339 335 332 330 327 325 324 321 318 316
137 144 147 151 147 134 126 122 117 113 112 111 109 106 105 103 101 99 96 93 91 88 84 81 79 76 75 75 71 66 60 53 50 48 42 35 29 12 355 354 19 51 57 35 28 29 20 17 19 14 10 4 1 357 352 354 348 344 348 348 346 346 342 345 350 350 352 353 352 351 348 346 345 343 340 338 335 332 330 328 325 323 321 318 317
141 148 152 152 142 132 128 124 119 117 116 115 113 111 108 106 104 102 99 97 93 90 87 83 80 78 76 75 73 68 60 57 53 48 43 35 28 21 13 6 0 10 60 39 28 25 19 17 11 10 8 0 357 354 351 353 348 345 347 345 345 347 343 345 351 353 355 355 352 350 348 346 343 342 340 337 336 334 330 329 327 324 322 319 317
144 150 154 148 138 134 131 126 123 121 120 118 116 114 111 108 107 105 103 101 96 92 89 86 83 80 77 76 75 70 62 58 54 45 40 35 29 27 23 15 7 5 16 31 32 17 10 11 6 360 1 358 353 350 350 351 348 345 345 345 346 345 344 348 352 353 353 352 351 350 348 346 343 343 341 339 338 337 333 331 329 327 324 321 319
145 151 152 144 138 136 132 127 126 124 123 121 118 116 114 111 109 108 106 104 100 94 91 89 87 85 83 79 76 72 64 58 54 46 38 35 31 30 29 24 20 17 4 3 34 21 2 2 2 355 353 353 350 347 348 349 347 346 344 345 347 344 344 350 351 350 352 350 350 350 348 346 345 344 344 342 340 339 338 335 333 331 328 325 322
148 151 148 144 142 139 134 131 129 127 125 123 121 119 116 114 113 111 110 108 104 98 95 93 90 88 88 83 77 73 66 60 56 49 41 36 31 31 34 32 26 19 6 355 13 22 4 354 353 351 350 349 346 346 347 347 347 347 346 346 348 346 347 350 349 348 349 347 347 349 348 348 347 346 346 346 343 341 341 340 338 337 334 332 331
149 149 149 149 147 143 138 136 134 132 130 126 125 123 119 118 117 116 114 111 107 103 100 97 94 93 89 84 79 73 68 64 58 52 46 39 35 33 33 33 28 20 10 360 354 0 360 351 345 346 348 346 346 347 347 346 347 348 348 348 349 350 351 351 348 346 344 344 346 349 350 350 348 348 349 348 346 344 343 343 343 341 340 341 342
149 150 153 152 149 145 140 140 138 135 133 130 128 126 123 121 119 118 117 114 110 108 107 103 99 95 89 85 81 73 67 65 58 53 48 40 40 39 32 30 27 18 8 0 352 346 346 347 344 344 347 347 347 350 349 346 346 348 350 351 351 353 354 351 348 345 343 344 348 350 350 350 350 351 351 349 348 348 347 346 346 344 341 341 342
149 153 155 151 148 145 142 142 142 139 136 134 132 130 127 124 122 120 119 117 115 112 111 108 101 95 91 88 84 75 69 65 58 53 46 39 40 37 32 28 20 11 5 358 351 342 338 341 344 345 349 350 349 352 351 347 345 348 351 353 353 354 355 352 348 345 344 344 348 350 350 351 351 349 350 350 349 348 350 349 346 343 342 341 339
152 154 153 151 149 147 145 146 145 142 139 137 135 133 130 127 125 123 122 120 119 117 115 111 104 98 93 90 86 79 75 70 62 54 45 39 38 34 29 24 13 1 357 354 347 338 333 336 343 346 349 352 351 352 353 350 346 348 351 354 354 352 352 351 347 346 345 345 347 349 351 352 349 347 349 350 349 349 352 351 348 346 344 342 337
153 154 153 152 151 148 148 148 146 145 142 140 138 135 133 131 128 127 127 124 122 121 118 112 105 101 98 94 89 86 84 76 68 59 50 42 39 34 25 17 9 359 352 351 345 336 330 332 342 349 350 351 352 352 352 351 349 349 350 351 352 352 350 348 347 347 347 346 347 349 353 353 349 348 349 350 351 353 352 352 350 347 342 339 336
152 153 153 152 152 151 151 150 148 147 145 143 140 138 135 134 132 131 131 128 126 122 117 111 107 103 99 95 91 90 87 80 74 63 53 46 41 34 23 13 6 358 351 348 343 335 331 336 344 350 352 353 352 353 354 352 349 349 348 349 350 350 348 346 346 348 348 348 349 351 354 354 351 350 350 350 352 352 351 351 348 344 341 339 338
152 153 154 154 154 154 153 152 150 148 147 145 143 140 139 137 136 134 132 131 127 123 117 111 108 105 101 98 94 89 84 81 75 63 56 51 43 34 21 10 4 357 351 348 344 338 337 344 349 351 354 356 354 353 355 353 349 348 347 346 347 349 348 347 347 348 348 349 350 353 356 355 354 353 352 353 354 353 352 352 348 345 343 342 342
153 154 155 156 155 155 154 152 151 149 147 147 145 144 143 141 139 137 134 133 128 124 119 113 110 107 103 99 89 83 82 79 71 64 62 56 44 36 23 9 2 358 353 349 346 344 345 351 356 355 354 356 356 353 352 351 349 350 349 345 344 347 348 347 349 350 348 348 351 354 356 356 355 355 356 357 355 353 354 354 353 351 348 346 347
156 157 156 156 155 155 155 153 152 151 149 149 148 148 147 144 142 139 137 135 130 125 120 116 114 111 105 98 92 97 104 101 94 93 96 87 58 39 25 12 6 1 356 353 351 350 351 356 359 358 355 356 356 352 350 351 351 349 348 345 342 343 345 345 349 352 350 349 352 354 356 357 357 357 359 360 356 354 355 356 355 356 354 352 352
158 158 157 156 155 155 156 154 153 152 151 152 154 153 150 146 144 142 139 136 132 127 124 121 120 116 110 108 110 111 110 104 97 96 97 93 79 60 39 23 14 5 359 357 357 353 352 358 2 359 357 357 356 353 351 351 349 344 342 342 341 342 343 343 347 353 353 352 352 352 354 358 358 359 1 1 356 355 356 357 356 357 358 357 355
159 158 157 158 157 156 157 155 153 153 153 157 160 157 152 148 145 142 140 137 134 131 130 129 126 123 121 120 117 109 99 91 88 87 87 85 80 73 59 45 34 18 4 358 360 356 353 358 2 359 358 358 355 354 351 346 343 341 341 342 343 344 345 344 346 353 357 356 352 349 353 358 359 360 3 3 358 356 357 357 357 358 359 359 359
159 159 159 159 159 159 158 156 155 153 156 163 162 156 152 149 146 143 141 140 139 137 136 137 137 135 136 134 123 104 89 82 75 70 72 77 74 69 62 52 43 33 21 4 356 356 354 357 360 359 359 355 351 352 349 343 341 341 341 342 344 346 347 346 348 352 358 359 354 347 347 355 357 358 2 4 1 360 360 359 359 0 1 2 2
159 160 161 160 160 161 160 158 157 155 161 168 164 157 154 150 144 143 145 144 144 144 144 147 148 146 147 146 136 128 137 143 103 44 42 52 50 46 42 37 32 29 27 21 10 1 351 348 355 0 357 351 349 350 348 342 339 339 340 342 345 346 346 346 350 351 354 359 356 347 343 351 355 354 357 360 358 357 1 2 2 3 5 5 5
162 163 163 161 162 163 161 161 159 156 165 170 166 160 156 150 144 143 148 150 148 149 151 153 154 155 153 149 144 142 142 138 147 174 333 352 356 4 4 355 357 8 14 19 20 12 357 343 348 356 354 348 346 345 344 340 338 338 339 339 343 346 343 344 350 350 352 359 358 348 342 350 353 350 350 354 351 349 356 2 4 6 7 8 8
167 166 164 162 163 164 164 164 159 156 167 172 169 163 156 150 146 143 147 153 149 146 152 155 157 161 159 155 153 150 148 149 161 166 163 242 322 326 324 301 277 303 356 7 6 3 358 344 342 348 349 346 340 335 337 341 341 339 336 334 340 344 340 340 348 350 352 3 1 350 341 348 353 348 345 348 346 346 355 2 6 8 10 10 10
172 168 165 164 165 165 166 165 156 156 169 173 171 165 156 151 149 139 140 150 146 144 153 155 158 163 159 154 153 148 149 161 161 152 143 134 65 346 330 319 297 274 325 352 355 2 356 336 333 337 334 338 338 331 333 343 346 340 332 331 337 340 339 339 347 351 352 3 5 355 342 344 351 349 344 345 343 343 356 6 9 11 12 12 11
174 168 166 167 167 166 167 165 157 158 168 172 170 165 159 153 147 135 139 149 147 150 156 155 159 162 157 156 158 157 161 163 158 146 127 113 81 360 336 348 344 324 319 330 340 355 352 335 330 329 326 333 339 335 335 348 354 347 336 336 340 341 342 342 347 351 350 358 5 358 344 341 349 348 343 343 341 336 348 4 10 13 14 14 12
175 169 168 169 168 169 169 165 159 162 168 172 170 166 161 154 144 136 152 160 157 160 161 161 165 167 172 174 162 160 178 176 163 154 132 104 67 349 334 347 335 337 342 329 325 334 334 327 326 328 330 337 340 337 336 347 356 354 345 343 345 344 344 343 345 349 347 352 2 357 346 343 348 347 343 342 342 340 340 353 2 9 14 15 14
175 169 169 168 168 171 170 164 164 168 172 174 173 169 166 161 151 149 169 173 167 168 167 168 175 182 191 183 161 152 186 187 170 162 151 124 74 353 322 322 321 331 340 330 322 324 323 321 326 333 343 350 350 350 347 345 354 357 349 344 344 344 345 343 343 344 343 350 359 355 349 346 348 348 346 342 342 347 347 342 348 358 7 13 14
174 171 171 168 167 169 166 165 173 177 176 177 177 174 170 164 154 155 175 181 174 173 175 178 181 186 194 190 179 176 187 184 174 168 163 151 121 10 320 314 323 331 332 327 320 316 319 327 337 342 347 353 355 356 352 349 354 356 348 343 343 343 342 341 341 341 340 350 356 351 346 347 349 350 352 347 339 342 347 345 342 348 356 4 10